Meteo Giornale » Osservazioni meteo Stati Uniti (USA) » Kake Seaplane Base
ore: 09:56 - Osservazioni Meteo Kake Seaplane Base
Lat. 56° 58' N Lon. 133° 57' W Alt. 0 metri s.l.m.
11 °C
Coperto
Temp. 24 Ore
11 °C
14 °C
Nord-Est
18.5 Km/h
Dew point 9 °C
Umidità 87 %
Visibilità 10 Km
Il sole sorge alle ore 05:59
Il sole tramonta alle ore 19:52
| Data e Ora | Cielo e Fenomeni | T °C | DP °C | Um. % | Pres. hPa | Vis. km | Vento km/h | |
|---|---|---|---|---|---|---|---|---|
| Oggi h: 09:56 | Coperto | 11 | 9 | 87 | 998 | 10 | NE 18.5 | |
| Oggi h: 08:56 | Coperto | 11 | 9 | 87 | 998 | 10 | E/NE 14.8 | |
| Oggi h: 07:56 | Coperto | 11 | 10 | 93 | 999 | 10 | E/NE 11.1 | |
| Oggi h: 06:56 | Coperto | 11 | 10 | 93 | 999 | 10 | E/NE 7.4 | |
| Oggi h: 05:56 | Pioggia | 11 | 10 | 93 | 999 | 10 | E 9.3 | |
| Oggi h: 04:56 | Coperto | 11 | 10 | 93 | 999 | 10 | E 9.3 | |
| Oggi h: 04:42 | Coperto | 11 | 10 | 93 | 999 | 10 | E 9.3 | |
| Oggi h: 04:28 | Coperto | 11 | 10 | 93 | 999 | 10 | E 11.1 | |
| Oggi h: 03:56 | Coperto | 11 | 10 | 93 | 999 | 10 | E 11.1 | |
| Oggi h: 02:56 | Pioggia | 11 | 10 | 93 | 1000 | 10 | E 13 | |
| Oggi h: 01:56 | Pioggia | 11 | 10 | 93 | 1000 | 10 | E 11.1 | |
| Oggi h: 00:56 | Pioggia | 11 | 10 | 93 | 1000 | 10 | E 9.3 | |
| Oggi h: 00:27 | Pioggia | 11 | 11 | 100 | 1000 | 10 | E 14.8 | |
| Oggi h: 00:13 | Coperto | 11 | 11 | 100 | 1001 | 10 | E/SE 14.8 | |
| Ieri h: 23:56 | Coperto | 11 | 11 | 100 | 1001 | 10 | E 13 | |
| Ieri h: 22:56 | Pioggia | 11 | 11 | 100 | 1001 | 13 | E 11.1 | |
| Ieri h: 21:56 | Coperto | 12 | 11 | 93 | 1001 | 10 | E 14.8 | |
| Ieri h: 20:56 | Pioggia | 12 | 11 | 93 | 1002 | 10 | E/SE 13 | |
| Ieri h: 19:56 | Pioggia | 12 | 11 | 93 | 1002 | 10 | E 16.7 | |
| Ieri h: 18:56 | Pioggia | 12 | 11 | 93 | 1002 | 10 | E/SE 13 | |
| Ieri h: 17:56 | Coperto | 12 | 11 | 93 | 1003 | 10 | SE 16.7 | |
| Ieri h: 16:56 | Coperto | 13 | 12 | 93 | 1003 | 10 | SE 14.8 | |
| Ieri h: 15:56 | Coperto | 13 | 12 | 93 | 1004 | 10 | SE 13 | |
| Ieri h: 14:56 | Coperto | 13 | 12 | 93 | 1004 | 10 | E/SE 13 | |
| Ieri h: 13:56 | Coperto | 14 | 11 | 82 | 1005 | 10 | SE 13 | |
| Ieri h: 12:56 | Molto Nuvoloso | 14 | 12 | 87 | 1005 | 10 | SE 18.5 | |
| Ieri h: 11:56 | Coperto | 14 | 12 | 87 | 1005 | 10 | SE 14.8 | |
| Ieri h: 11:39 | Molto Nuvoloso | 13 | 12 | 93 | 1005 | 10 | SE 18.5 | |
| Ieri h: 11:12 | Coperto | 13 | 12 | 93 | 1005 | 10 | E/SE 16.7 | |
| Ieri h: 10:56 | Coperto | 13 | 12 | 93 | 1006 | 10 | SE 14.8 | |
| Ieri h: 10:49 | Coperto | 13 | 12 | 93 | 1006 | 10 | SE 16.7 | |



